Regional Weather Roundup
Issued by NWS

Home | Current Version | Previous Version | Graphics & Text | Print | Product List | Glossary On
Versions: 1 2 3 4 5 6 7 8 9 10 11 12 13 14 15 16 17 18 19 20 21 22 23 24 25 26 27 28 29 30 31 32 33 34 35 36 37 38 39 40 41 42 43 44 45 46 47 48 49 50
000
ASUS43 KLOT 270506
RWRIL

ILLINOIS REGIONAL WEATHER ROUNDUP
NATIONAL WEATHER SERVICE CHICAGO/ROMEOVILLE IL
1100 PM CST THU FEB 26 2015

NOTE: "FAIR" INDICATES FEW OR NO CLOUDS BELOW 12,000 FEET WITH NO
SIGNIFICANT WEATHER AND/OR OBSTRUCTIONS TO VISIBILITY.

* THESE STATIONS ARE NOT UNDER NWS QUALITY CONTROL. THEY ALSO MAY NOT
  REPORT WEATHER SUCH AS PRECIPITATION OR FOG.

ILZ001-002-007-009-015-016-024-270600-
NORTHWEST ILLINOIS

CITY           SKY/WX    TMP DP  RH WIND       PRES   REMARKS
MOLINE         CLEAR      0  -9  65 W7        30.51R WCI -13
STERLING*      CLEAR     -2  -9  71 NW8       30.46S WCI -17
SAVANNA*       CLEAR      0  -8  68 W5        30.49S WCI -10
$$

ILZ003-004-008-010-011-017-018-270600-
NORTH CENTRAL ILLINOIS

CITY           SKY/WX    TMP DP  RH WIND       PRES   REMARKS
ROCKFORD       CLEAR     -3 -10  72 CALM      30.46R
FREEPORT*      CLEAR     -2 -10  69 W6        30.46S WCI -14
ROCHELLE*      CLEAR     -9 -13  80 CALM      30.45S
DE KALB*       FAIR      -3  -9  75 W6        30.42S WCI -15
PERU*          CLEAR      0  -6  74 NW9       30.47S WCI -16
$$

ILZ005-006-012>014-019>023-270600-
NORTHEAST ILLINOIS

CITY           SKY/WX    TMP DP  RH WIND       PRES   REMARKS
CHICAGO-OHARE  PTCLDY     1  -8  66 NW9       30.41S WCI -14
CHICAGO-MIDWAY PTCLDY     8  -5  55 NW8       30.43R WCI  -4
AURORA         CLEAR     -8 -15  71 NW5       30.44S WCI -19
LANSING*       CLEAR      6  -4  62 NW6       30.42S WCI  -4
JOLIET*        CLEAR      2  -6  69 CALM      30.44S
WAUKEGAN       CLEAR     -1  -8  72 W5        30.41S WCI -11
DUPAGE AIRPORT CLEAR      1  -8  66 NW7       30.42R WCI -12
KANKAKEE*      CLEAR      5  -4  66 NW6       30.44S WCI  -6
WHEELING       CLEAR      3  -8  60 NW6       30.44R WCI  -8
MORRIS*        CLEAR     -8 -12  83 NW7       30.45S WCI -23
ROMEOVILLE*    CLEAR      2  -6  70 NW6       30.43S WCI  -9
NORTHERLY ISL    N/A     12  -1  56 NW5         N/A  WCI   4
$$

LMZ740>746-270600-
SOUTHERN LAKE MICHIGAN

STATION/POSITION SKY/WX   TEMP    WIND        PRES    VSBY  WAVE
                          AIR SEA DIR/SP/G                  HT/PER
                          (F)     (DEG/KT/KT) (MB)    (MI)  (FT/S)
WAUKEGAN HARBOR             7     320/  5/ 12   N/A
HARRISON CRIB              11     310/ 14/ 17   N/A
BURNHAM HARBOR             12     320/  5/ 10   N/A
CALUMET HARBOR              9     280/  7/ 11 1028.6S
MICHIGAN CITY              13      40/ 12/ 14   N/A
$$

ILZ025>027-034>036-040-047-049-050-058-095>099-270600-
WEST-CENTRAL ILLINOIS

CITY           SKY/WX    TMP DP  RH WIND       PRES   REMARKS
QUINCY         CLEAR     -1  -9  68 NW7       30.53R WCI -14
GALESBURG*     CLEAR     -6 -10  83 W8        30.49S WCI -21
MACOMB*        CLEAR     -3  -8  78 NW10      30.54R WCI -20
JACKSONVILLE*  CLEAR      5  -4  66 NW10      30.51S WCI -10
PITTSFIELD*    PTCLDY     4  -4  70 CALM      30.53S
$$

ILZ028>032-037-038-041>044-048-051>054-059>061-270600-
CENTRAL ILLINOIS

CITY           SKY/WX    TMP DP  RH WIND       PRES   REMARKS
PONTIAC        CLEAR      4  -3  73 NW7       30.46S WCI  -9
BLOOMINGTON    CLOUDY    10   2  70 NW12      30.44S WCI  -5
DECATUR        CLOUDY    12   5  73 NW13      30.46R WCI  -3
PEORIA         CLEAR      4  -5  66 NW7       30.49S WCI  -8
LACON*         CLEAR      0  -7  73 NW5       30.49S WCI -10
LINCOLN*       MOCLDY     9   1  69 NW7       30.51S WCI  -3
SPRINGFIELD    NOT AVBL
TAYLORVILLE    CLOUDY     9   1  72 NW12      30.49R WCI  -6
$$

ILZ033-039-045-046-055>057-062-063-270600-
EAST-CENTRAL ILLINOIS

CITY           SKY/WX    TMP DP  RH WIND       PRES   REMARKS
CHAMPAIGN      CLOUDY    10   3  73 NW12      30.43S WCI  -5
DANVILLE*      CLOUDY     9   0  69 NW10      30.40R WCI  -6
RANTOUL*       CLOUDY    12   4  70 NW10      30.42S WCI  -2
PARIS*         CLOUDY    10   3  76 NW3       30.44S
$$

ILZ079-100>102-270600-
SOUTHWEST ILLINOIS

CITY           SKY/WX    TMP DP  RH WIND       PRES   REMARKS
ALTON          CLEAR      9  -3  58 NW8       30.52R WCI  -3
BELLEVILLE     CLEAR     11   2  68 NW15      30.51R WCI  -5
CAHOKIA*       CLEAR     12   1  61 N17       30.53R WCI  -5
SPARTA*        CLEAR     14   3  63 N8        30.51R WCI   2
$$

ILZ064>066-069>071-074>076-080>082-084>086-088>090-092>094-270600-
SOUTH-CENTRAL ILLINOIS

CITY           SKY/WX    TMP DP  RH WIND       PRES   REMARKS
CARBONDALE     NOT AVBL
CAIRO*         CLEAR     23  13  64 N12       30.47R WCI  12
EFFINGHAM*     CLOUDY    15   6  68 NW9       30.47S WCI   3
MARION         CLOUDY    19  12  73 NW7       30.47S WCI  10
MT. VERNON     CLOUDY    16   9  73 N7        30.46S WCI   6
CENTRALIA*     LGT SNOW  15   9  79 NW13      30.47S WCI   0
SALEM*         FLURRIES  15  10  80 NW12      30.47R WCI   2
METROPOLIS*    MOCLDY    21  14  74 N9        30.44R WCI  11
$$

ILZ067-068-072-073-078-083-087-091-270600-
SOUTHEAST ILLINOIS

CITY           SKY/WX    TMP DP  RH WIND       PRES   REMARKS
LAWRENCEVILLE  MOCLDY    13   5  70 N9        30.45R WCI   1
FLORA*         LGT SNOW  17  13  86 NW9       30.46S WCI   5
FAIRFIELD*     LGT SNOW  19  15  84 NW6       30.45S WCI  10
HARRISBURG*    LGT SNOW  20  15  81 NW8       30.47R WCI  10
ROBINSON*      CLEAR     11   7  85 N6        30.46R WCI   1
CARMI*         CLOUDY    22  17  79 N12       30.45R WCI  10
$$

ABBREVIATIONS USED IN REMARKS
   TC - TEMPERATURE IN CELSIUS
  WCI - WIND CHILL INDEX
   HX - HEAT INDEX
  VSB - VISIBILITY
$$




USA.gov is the U.S. government's official web portal to all federal, state and local government web resources and services.